Regional Weather Roundup
Issued by NWS

Home | Current Version | Previous Version | Graphics & Text | Print | Product List | Glossary On
Versions: 1 2 3 4 5 6 7 8 9 10 11 12 13 14 15 16 17 18 19 20 21 22 23 24 25 26 27 28 29 30 31 32 33 34 35 36 37 38 39 40 41 42 43 44 45 46 47 48 49 50
000
ASUS43 KMPX 250501
RWRMN
WEATHER ROUNDUP FOR MINNESOTA
NATIONAL WEATHER SERVICE TWIN CITIES/CHANHASSEN MN
1100 PM CST WED DEC 24 2014


NOTE: "FAIR" INDICATES FEW OR NO CLOUDS BELOW 12,000 FEET WITH NO
SIGNIFICANT WEATHER AND/OR OBSTRUCTIONS TO VISIBILITY. N/A MEANS
CURRENT SKY AND/OR WEATHER CONDITIONS ARE NOT AVAILABLE.

MNZ060>063-068>070-250600-
   Twin Cities Metro

CITY           SKY/WX    TMP DP  RH WIND       PRES   REMARKS
TWIN CITIES    CLOUDY    31  27  85 SW13      29.60R WCI  21
ST PAUL        CLOUDY    31  28  89 SW9       29.61R WCI  23
CRYSTAL        CLOUDY    32  28  85 SW9G17    29.59R WCI  24
BLAINE         CLOUDY    34  30  86 SW13      29.59R WCI  25
LAKEVILLE      CLOUDY    30  28  93 SW7       29.60S WCI  23
EDEN PRAIRIE   CLOUDY    31  27  85 SW10      29.59R WCI  22
SOUTH ST PAUL  CLOUDY    32  29  88 SW8       29.60S WCI  25
LAKE ELMO      CLOUDY    32  30  93 SW13      29.59F WCI  22
$$
MNZ001>005-007-008-013>017-022>024-027-028-250600-
   Northwest Minnesota

CITY           SKY/WX    TMP DP  RH WIND       PRES   REMARKS
BEMIDJI        MOCLDY    28  26  89 S7        29.44S WCI  21
HALLOCK        CLOUDY    28  27  93 S8        29.40R FOG     WCI  20
ROSEAU         CLOUDY    28  25  86 SW9       29.41S WCI  20
WARROAD        CLOUDY    28  25  86 SW9       29.41S WCI  20
THIEF RVR FALL CLOUDY    28  27  93 SW13      29.42F WCI  18
CROOKSTON      CLOUDY    28  27  93 SW14      29.44S WCI  17
FOSSTON        CLOUDY    27  25  93 S17       29.44F WCI  14
DETROIT LAKES  MOCLDY    30  28  93 S5        29.47S WCI  25
MOORHEAD       CLOUDY    30  30 100 S9        29.48F WCI  22
PARK RAPIDS    CLOUDY    28  26  92 S8        29.46S WCI  20
MAHNOMEN       CLOUDY    28  26  93 SW14      29.45F WCI  16
$$
MNZ006-009>011-018-025>026-250600-
   North Central Minnesota

CITY           SKY/WX    TMP DP  RH WIND       PRES   REMARKS
BAUDETTE       CLOUDY    30  26  85 SW8       29.41F WCI  22
FLAG ISLAND    CLOUDY    28  27  93 S8        29.40S WCI  20
INTL FALLS     CLOUDY    31  29  92 S7        29.43S WCI  24
WASKISH        CLOUDY    30  28  93 CALM      29.43S
BIG FORK       CLOUDY    30  28  93 S6        29.45S WCI  24
LONGVILLE      CLOUDY    30  27  86 S5        29.48S WCI  25
GRAND RAPIDS   CLOUDY    30  28  93 SW8       29.47R WCI  23
CRANE LAKE     FLURRIES  30  28  93 CALM      29.46S
ORR            CLOUDY    30  27  86 CALM      29.42F
COOK           CLOUDY    30  28  93 SW3       29.45S
WALKER         CLOUDY    28  25  89 S6        29.46F WCI  22
$$
MNZ012-019>021-037-250600-
   Northeast Minnesota

CITY           SKY/WX    TMP DP  RH WIND       PRES   REMARKS
DULUTH         CLOUDY    32  28  85 W14G20    29.47F WCI  22
ELY            LGT SNOW  30  28  93 SW3       29.44F
HIBBING        CLOUDY    32  28  85 SW3       29.46S
EVELETH        CLOUDY    32  32 100 SW7       29.47S WCI  26
DULUTH HARBOR  CLOUDY    34  30  86 SW6       29.52F WCI  29
TWO HARBORS    CLOUDY    34  28  80 SW3       29.47S
SILVER BAY     CLOUDY    34  30  86 CALM      29.46F
GRAND MARAIS     N/A     33  29  85 VRB5      29.48S WCI  29
G MARAIS ARPRT LGT SNOW  27  25  93 CALM      29.44R
$$
MNZ029>031-032-039>041-046>048-054>057-064-250600-
   West Central Minnesota

CITY           SKY/WX    TMP DP  RH WIND       PRES   REMARKS
FERGUS FALLS   CLOUDY    28  27  93 S13       29.52F WCI  18
WHEATON        CLOUDY    27  25  93 S9        29.53R WCI  17
MORRIS         CLOUDY    28  27  93 S13       29.51F WCI  18
ALEXANDRIA     CLOUDY    28  26  92 S10       29.51F WCI  19
ELBOW LAKE     CLOUDY    28  26  96 S15       29.50S WCI  16
WADENA         CLOUDY    27  27 100 S10       29.48S WCI  17
GLENWOOD       CLOUDY    27  27 100 S14       29.52F WCI  15
APPLETON       CLOUDY    28  27  93 S7        29.54S WCI  21
BENSON         MOCLDY    28  27  93 S10       29.54F WCI  19
ORTONVILLE     CLOUDY    28  25  86 S8        29.51F WCI  20
MADISON          N/A     32  30  93 S9        29.53F WCI  24
WILLMAR        CLOUDY    30  27  86 S5        29.57F WCI  25
$$
MNZ033>034-036-042>043-049>051-058-059-250600-
   Central Minnesota

CITY           SKY/WX    TMP DP  RH WIND       PRES   REMARKS
ST CLOUD       CLOUDY    33  27  78 SW13      29.55S WCI  24
SAUK CENTRE    CLOUDY    29  27  95 S13       29.53F WCI  18
PAYNESVILLE    CLOUDY    27  26  99 S9        29.55F WCI  17
AITKIN         CLOUDY    34  27  75 SW8       29.49S WCI  27
PINE RIVER     CLOUDY    28  27  93 S6        29.54R WCI  22
BRAINERD       CLOUDY    30  27  88 SW14      29.52R WCI  19
STAPLES        CLOUDY    28  27  93 S12       29.49F WCI  18
LONG PRAIRIE   CLOUDY    28  28 100 W12       29.52F WCI  18
LITTLE FALLS   CLOUDY    30  28  93 S9        29.54S WCI  22
LITCHFIELD     CLOUDY    30  30 100 SW6       29.58S WCI  24
BUFFALO        CLOUDY    31  28  89 SW8       29.59R WCI  24
MAPLE LAKE     CLOUDY    32  30  93 S5        29.58R WCI  27
$$
MNZ037-044-045-052-053-250600-
   East Central Minnesota

CITY           SKY/WX    TMP DP  RH WIND       PRES   REMARKS
PRINCETON      CLOUDY    32  28  86 SW9       29.57R WCI  24
MORA           CLOUDY    32  27  80 SW6       29.57R WCI  26
CAMBRIDGE      CLOUDY    34  27  75 SW7       29.56R WCI  28
RUSH CITY      CLOUDY    32  29  88 SW5       29.57R WCI  27
MOOSE LAKE     CLOUDY    32  30  93 SW8       29.50S WCI  25
HINCKLEY       CLOUDY    32  30  93 SW13      29.54S WCI  22
CLOQUET        CLOUDY    32  28  86 SW12      29.49S WCI  23
MCGREGOR       CLOUDY    32  30  93 SW9       29.50R WCI  24
$$
MNZ071>073-080-081-089-090-097-098-250600-
   Southwest Minnesota

CITY           SKY/WX    TMP DP  RH WIND       PRES   REMARKS
MONTEVIDEO     CLOUDY    28  28 100 SW9G16    29.55F WCI  20
GRANITE FALLS  CLOUDY    28  26  91 S10       29.58F WCI  19
CANBY          CLOUDY    28  25  88 S6        29.54F WCI  21
MARSHALL       CLOUDY    27  21  80 SW9       29.56F WCI  17
REDWOOD FALLS  CLOUDY    29  25  85 SW16      29.59S WCI  17
OLIVIA         CLOUDY    28  27  93 S13       29.57F WCI  18
PIPESTONE      CLOUDY    27  25  93 SW10      29.55S WCI  17
WINDOM         CLOUDY    27  25  93 SW12      29.59S WCI  16
WORTHINGTON    CLOUDY    25 -20  13 SW16      29.59F WCI  12
JACKSON        CLOUDY    28  27  93 SW16      29.62S WCI  17
TRACY          MOCLDY    28  26  94 SW10G16   29.56F WCI  18
SLAYTON        CLOUDY    25  25  98 S13G18    29.56F WCI  14
$$
MNZ065>067-074>077-082>085-091>093-250600-
   South Central Minnesota

CITY           SKY/WX    TMP DP  RH WIND       PRES   REMARKS
MANKATO        CLOUDY    30  25  80 SW16      29.62R WCI  19
NEW ULM        CLOUDY    28  27  93 SW9G17    29.61R WCI  20
ST JAMES       CLOUDY    28  27  93 SW14G20   29.63R WCI  17
FAIRMONT       CLOUDY    27  23  86 SW14      29.63S WCI  15
GLENCOE        CLOUDY    32  30  94 SW7G16    29.59R WCI  26
FARIBAULT      CLOUDY    32  28  86 SW10      29.62R WCI  24
OWATONNA       CLOUDY    32  28  86 SW13      29.62S WCI  22
ALBERT LEA     CLOUDY    28  28 100 SW12G18   29.63S WCI  18
$$
MNZ078>079-086>088-094>096-250600-
   Southeast Minnesota

CITY           SKY/WX    TMP DP  RH WIND       PRES   REMARKS
ROCHESTER      MIX PCPN  30  28  92 SW15      29.62S WCI  19
RED WING       CLOUDY    34  28  80 W7        29.61R WCI  28
STANTON        CLOUDY    33  29  87 SW8       29.61R WCI  25
DODGE CENTER   CLOUDY    30  30 100 SW12      29.60F WCI  21
WINONA         CLOUDY    34  30  86 W7        29.64R WCI  28
AUSTIN         CLOUDY    30  28  93 W12       29.63S WCI  21
PRESTON        CLOUDY    29  28  92 SW13      29.63S WCI  19
$$
ABBREVIATIONS USED IN REMARKS
   TC - TEMPERATURES IN CELSIUS
  WCI - WIND CHILL INDEX
   HX - HEAT INDEX
  VSB - VISIBILITY
$$



USA.gov is the U.S. government's official web portal to all federal, state and local government web resources and services.